Location: Bad Dürkheim
(49.4618°N, 8.1724°E)
Time: 20:52:23
(UTC+00:00)

NOSS 3-4 (C) - Pass Details

Date: 14 June 2025
Orbit: 778 x 1433 km, 63.4° (Epoch: 09 July)

Event Time Altitude Azimuth Distance (km) Brightness Sun altitude
Rises 20:54:58 0° 228° (SW) 3,260 6.2 -9.7°
Reaches altitude 10° 20:57:18 10° 231° (SW) 2,357 5.5 -9.9°
Maximum altitude 21:02:39 72° 316° (NW) 888 3.5 -10.4°
Drops below altitude 10° 21:08:40 10° 41° (NE) 2,638 6.0 -10.9°
Sets 21:11:24 0° 43° (NE) 3,679 6.7 -11.2°
